Orbital Elements at Epoch 2459200.5 (2020-Dec-17.0) TDB
Reference: JPL 15 (heliocentric ecliptic J2000)
Element | Value | Uncertainty (1-sigma) | Units |
e | .04995596729611128 | 4.9263e-08 | |
a | 2.356788338816445 | 1.4649e-08 | au |
q | 2.239052697638674 | 1.1921e-07 | au |
i | 6.12508513317555 | 5.0319e-06 | deg |
node | 229.0359208854697 | 4.7321e-05 | deg |
peri | 296.9940253086883 | 7.2267e-05 | deg |
M | 163.9978812631493 | 5.1506e-05 | deg |
tp | 2458598.474295776872 (2019-Apr-24.97429578) | 0.00019081 | TDB |
period | 1321.536911641954 3.62 | 1.2321e-05 3.373e-08 | d yr |
n | .2724100982943526 | 2.5398e-09 | deg/d |
Q | 2.474523979994215 | 1.5381e-08 | au |
|
| | Orbit Determination Parameters
Additional Information
|